CAPE
18 3 0 0 0 0 0 0 0 0 0 0 0 0 0 0 1 0 2 2 0 0 0 85 251 370 352 256 102 31 2 0 0 0 0 0 1 6 12 16 8 2 0
0 0 0 0 0 0 0 1 6 9 4 0 0 0 1 2 0 2 41 14 0 0 0 0 18 266 418 388 186 37 6 0 0 0 0 0 0 1 3 13 9 4 0
0 0 0 0 0 0 0 0 0 0 0 0 7 28 45 25 32 74 70 79 37 6 0 0 0 0 79 452 358 81 19 0 0 0 0 1 3 3 0 7 7 8 7
0 0 0 0 0 0 0 0 0 0 0 0 0 0 0 0 32 87 111 122 91 30 12 0 0 0 0 1 204 205 61 0 0 0 0 0 1 5 3 7 8 6 3
0 0 0 0 0 0 0 0 0 0 0 0 0 0 0 0 0 0 54 112 150 75 26 39 3 0 0 0 41 189 217 41 0 0 0 0 4 5 4 5 4 3 10
0 0 0 0 0 0 0 0 0 0 0 0 0 0 0 0 0 0 2 95 157 151 74 32 9 0 0 0 0 0 81 378 40 1 0 0 5 4 6 4 3 3 10
0 0 0 0 0 0 0 0 0 0 0 0 0 0 0 0 0 0 0 6 93 147 119 40 11 3 0 0 0 0 0 68 506 34 3 0 0 3 4 4 10 12 9
0 0 0 0 0 0 0 0 0 0 0 0 0 0 0 0 0 0 0 0 0 0 33 87 24 4 2 2 0 0 0 40 220 400 28 4 0 0 1 7 10 13 14
0 0 0 0 0 0 0 0 0 0 0 0 0 0 0 0 0 0 0 0 0 0 0 0 11 15 1 0 0 0 0 1 171 334 265 14 0 0 0 4 11 12 22
0 3 5 11 11 4 0 0 0 1 0 0 0 3 0 0 0 0 0 0 0 0 0 0 0 2 20 10 0 0 0 0 2 146 264 132 8 0 0 1 7 18 18
0 0 0 0 2 9 5 0 0 0 0 0 0 14 5 0 0 0 0 0 0 0 0 0 0 0 0 0 17 0 0 0 0 33 26 69 105 10 0 0 9 17 20
0 0 0 0 0 0 0 0 0 0 0 0 0 0 0 3 0 0 0 0 0 0 0 0 0 0 0 0 0 4 6 1 0 1 46 113 191 94 46 0 0 7 22
0 0 0 0 0 0 0 0 0 0 0 0 0 0 0 0 0 0 0 0 0 0 0 0 0 0 0 0 0 0 0 0 0 0 0 57 173 125 121 55 15 6 15
0 0 0 0 0 0 0 0 0 0 0 0 0 0 0 0 0 0 3 12 3 0 0 0 0 0 0 0 0 0 0 0 0 0 0 0 16 110 113 97 58 28 14
0 0 0 0 0 0 0 0 0 0 0 0 0 0 0 0 0 2 0 0 1 0 0 0 0 0 0 10 17 9 0 0 0 0 0 0 0 1 54 85 52 33 21
0 0 0 0 0 0 0 0 0 0 0 0 0 0 0 0 0 0 0 4 21 36 15 1 0 0 0 0 10 11 16 9 0 0 0 0 0 0 5 59 45 38 33
0 0 0 0 0 0 0 0 0 0 0 0 0 0 0 0 0 0 0 0 0 1 14 0 0 0 0 0 0 1 17 22 7 0 0 0 0 0 0 10 42 30 32
0 0 0 0 0 0 0 0 0 0 0 0 0 0 0 0 0 0 0 0 0 0 12 1 0 0 0 0 0 0 0 33 10 0 0 0 0 0 0 0 2 26 19
0 0 0 0 0 0 0 0 0 0 0 0 0 0 0 0 0 0 0 0 2 4 5 19 0 0 0 0 0 0 0 0 17 5 0 0 0 0 0 0 0 0 6
0 0 0 0 0 0 0 0 0 0 0 0 0 1 1 1 0 0 0 0 0 0 0 1 4 0 0 0 0 0 0 0 6 3 0 0 0 0 0 0 0 0 0
0 0 0 0 0 0 0 0 0 0 0 0 0 0 0 0 0 0 0 0 0 0 1 7 3 0 3 0 0 0 0 0 3 2 0 0 0 0 0 0 0 0 0
0 0 0 0 0 0 0 0 0 0 0 0 0 0 0 1 1 1 0 0 0 0 2 5 2 4 0 3 0 0 0 0 2 0 0 0 0 0 0 0 0 0 0
0 0 0 0 0 0 0 0 0 0 0 0 0 0 0 1 1 0 0 0 0 0 0 0 0 0 1 0 0 1 6 0 7 0 0 0 0 0 0 1 0 0 0
0 0 0 0 0 0 0 0 0 0 0 0 0 0 0 0 0 0 0 1 2 7 1 0 0 0 0 0 0 0 0 1 0 0 0 0 0 1 1 0 0 0 0
0 0 0 0 0 0 0 0 0 0 0 0 0 0 0 0 0 0 0 1 0 0 2 11 13 1 0 0 0 0 0 1 0 0 0 0 0 0 1 1 0 1 0
0 0 0 0 0 0 0 0 0 0 6 1 0 3 0 0 1 0 0 0 0 0 0 0 0 0 7 3 1 1 0 0 1 0 0 0 0 0 0 0 1 0 0
CIN
-232 -154 -0 -0 -0 -0 -0 -0 -0 -0 -0 -0 -0 -0 -0 -0 -38 -0 -49 -57 -0 -0 -40 -35 -4 -6 -26 -29 -78 -168 -61 -0 -0 -0 -0 -0 -1 -5 -4 -5 -6 -2 -0
-0 -0 -0 -0 -0 -0 -0 -2 -0 -0 -3 -0 -0 -0 -25 -50 -0 -30 -11 -45 -0 -0 -0 -0 -15 -8 -0 -18 -40 -116 -236 -0 -0 -0 -0 -0 -0 -1 -4 -4 -5 -3 -0
-0 -0 -0 -0 -0 -0 -0 -0 -0 -0 -0 -0 -2 -0 -0 -26 -71 -34 -29 -9 -11 -115 -0 -0 -0 -0 -10 -0 -4 -86 -204 -0 -0 -0 -0 -0 -1 -2 -0 -3 -3 -5 -3
-0 -0 -0 -0 -0 -0 -0 -0 -0 -0 -0 -0 -0 -0 -0 -0 -8 -13 -26 -8 -26 -19 -92 -4 -0 -0 -0 -34 -2 -10 -99 -0 -0 -0 -0 -0 -0 -1 -2 -0 -2 -0 -0
-0 -0 -0 -0 -0 -0 -0 -0 -0 -0 -0 -0 -0 -0 -0 -0 -0 -0 -22 -13 -18 -23 -59 -101 -114 -0 -0 -0 -41 -2 -2 -64 -0 -0 -0 -0 -0 -1 -3 -3 -1 -0 -0
-0 -0 -0 -0 -0 -0 -0 -0 -0 -0 -0 -0 -0 -0 -0 -0 -0 -0 -4 -8 -13 -17 -28 -88 -152 -0 -0 -0 -0 -0 -16 -0 -50 -0 -0 -0 -0 -3 -2 -0 -0 -0 -1
-0 -0 -0 -0 -0 -0 -0 -0 -0 -0 -0 -0 -0 -0 -0 -0 -0 -0 -0 -3 -4 -15 -16 -48 -149 -2 -0 -0 -0 -0 -0 -13 -0 -13 -0 -0 -0 -1 -2 -2 -1 -2 -1
-0 -0 -0 -0 -0 -0 -0 -0 -0 -0 -0 -0 -0 -0 -0 -0 -0 -0 -0 -0 -0 -0 -31 -5 -47 -17 -14 -2 -0 -0 -0 -27 -5 -0 -24 -128 -0 -0 -3 -1 -2 -2 -2
-0 -0 -0 -0 -0 -0 -0 -0 -0 -0 -0 -0 -0 -0 -0 -0 -0 -0 -0 -0 -0 -0 -0 -0 -5 -5 -7 -0 -0 -0 -0 -56 -2 -0 -1 -29 -0 -0 -0 -7 -3 -2 -0
-0 -6 -3 -6 -4 -4 -0 -0 -0 -1 -0 -0 -0 -1 -0 -0 -0 -0 -0 -0 -0 -0 -0 -0 -0 -1 -2 -17 -0 -0 -0 -0 -26 -8 -6 -14 -3 -0 -0 -3 -7 -2 -0
-0 -0 -0 -0 -0 -10 -11 -0 -0 -0 -0 -0 -0 -3 -3 -0 -0 -0 -0 -0 -0 -0 -0 -0 -0 -0 -0 -0 -3 -0 -0 -0 -0 -46 -13 -11 -9 -20 -0 -0 -11 -6 -0
-0 -0 -0 -0 -0 -0 -0 -0 -0 -0 -0 -0 -0 -0 -0 -9 -2 -0 -0 -0 -0 -0 -0 -0 -0 -0 -0 -0 -0 -6 -21 -44 -0 -82 -38 -14 -13 -10 -5 -0 -2 -11 -2
-0 -0 -0 -0 -0 -0 -0 -0 -0 -0 -0 -0 -0 -0 -0 -0 -0 -0 -0 -0 -0 -0 -0 -0 -0 -0 -0 -0 -0 -0 -0 -35 -11 -29 -71 -7 -8 -18 -5 -5 -3 -4 -2
-0 -0 -0 -0 -0 -0 -0 -0 -0 -0 -0 -0 -0 -0 -0 -0 -0 -0 -0 -0 -1 -0 -0 -0 -0 -0 -0 -0 -0 -0 -0 -0 -0 -0 -22 -0 -21 -11 -19 -13 -12 -2 -0
-0 -0 -0 -0 -0 -0 -0 -0 -0 -0 -0 -0 -0 -0 -0 -0 -0 -2 -0 -0 -0 -0 -0 -0 -0 -0 -0 -25 -18 -49 -1 -0 -0 -0 -0 -0 -0 -9 -17 -21 -25 -18 -9
-0 -0 -0 -0 -0 -0 -0 -0 -0 -0 -0 -0 -0 -0 -0 -0 -0 -0 -0 -1 -2 -1 -1 -1 -0 -4 -0 -0 -4 -7 -22 -31 -0 -0 -0 -0 -0 -0 -18 -17 -27 -40 -34
-0 -0 -0 -0 -0 -0 -0 -0 -0 -0 -0 -0 -0 -0 -0 -0 -0 -0 -0 -0 -0 -1 -2 -0 -0 -1 -0 -0 -0 -6 -14 -33 -30 -0 -0 -0 -0 -0 -0 -17 -22 -39 -43
-0 -0 -0 -0 -0 -0 -0 -0 -0 -0 -0 -0 -0 -0 -0 -0 -0 -0 -0 -0 -0 -0 -1 -0 -0 -0 -0 -0 -0 -0 -0 -26 -40 -0 -0 -0 -0 -0 -0 -0 -19 -41 -59
-0 -0 -0 -0 -0 -0 -0 -0 -0 -0 -0 -0 -0 -0 -0 -0 -0 -0 -0 -0 -1 -2 -2 -2 -0 -0 -0 -0 -1 -0 -0 -0 -20 -16 -0 -0 -0 -0 -0 -0 -0 -0 -82
-0 -0 -0 -0 -0 -0 -0 -0 -0 -0 -0 -1 -3 -3 -2 -3 -0 -0 -0 -0 -0 -0 -1 -1 -1 -0 -0 -0 -0 -0 -0 -0 -35 -56 -0 -0 -0 -0 -0 -0 -0 -0 -0
-0 -0 -0 -0 -0 -0 -0 -0 -0 -0 -0 -0 -0 -0 -0 -0 -0 -0 -0 -0 -0 -0 -1 -0 -0 -1 -2 -0 -0 -0 -0 -0 -20 -28 -0 -0 -0 -0 -0 -0 -0 -0 -0
-0 -0 -0 -0 -0 -0 -0 -0 -0 -0 -0 -0 -0 -0 -0 -1 -1 -1 -0 -0 -0 -0 -0 -0 -0 -0 -0 -6 -0 -0 -0 -0 -7 -0 -0 -0 -0 -0 -0 -0 -0 -0 -0
-0 -0 -0 -0 -0 -0 -0 -0 -0 -0 -0 -0 -0 -0 -0 -1 -0 -0 -0 -0 -0 -0 -0 -0 -0 -1 -0 -0 -0 -9 -13 -0 -15 -0 -0 -0 -0 -0 -0 -0 -0 -0 -0
-0 -0 -0 -0 -0 -0 -0 -0 -0 -0 -0 -0 -0 -0 -0 -0 -0 -0 -0 -1 -1 -0 -0 -0 -0 -0 -0 -0 -0 -0 -2 -0 -0 -0 -0 -0 -0 -0 -0 -0 -0 -0 -0
-0 -0 -0 -0 -0 -0 -0 -0 -0 -0 -0 -0 -0 -0 -0 -0 -0 -0 -0 -2 -0 -0 -0 -1 -0 -1 -0 -0 -0 -0 -0 -0 -0 -0 -0 -0 -0 -0 -0 -0 -0 -0 -0
-0 -0 -0 -0 -0 -0 -0 -0 -0 -0 -1 -6 -0 -0 -0 -4 -4 -0 -0 -0 -0 -0 -0 -0 -0 -1 -1 -3 -6 -6 -0 -0 -0 -0 -0 -0 -0 -0 -0 -0 -0 -0 -0
Wind_Speed
18 16 17 17 20 20 21 22 23 22 21 19 14 28 34 35 35 32 35 37 35 36 35 33 31 26 22 23 25 23 21 20 19 18 18 18 16 15 13 12 11 10 10
21 20 20 21 21 24 26 26 25 22 21 19 16 8 19 32 35 34 33 28 31 36 37 37 35 30 26 24 24 28 25 23 21 20 19 18 18 17 15 14 13 12 12
20 21 21 22 23 22 24 25 26 27 27 25 23 20 19 14 13 24 29 30 34 33 34 35 37 37 32 30 26 29 28 25 24 21 20 19 18 18 17 16 15 14 13
18 19 20 22 24 24 24 26 27 29 30 30 28 26 26 28 24 17 18 29 29 33 32 34 36 39 39 40 33 31 30 28 27 24 22 21 20 19 18 17 16 16 15
19 20 20 21 24 24 25 27 30 30 31 31 32 32 32 32 30 33 25 20 19 28 29 31 32 34 36 35 33 31 28 32 30 27 25 24 23 21 20 19 18 17 16
17 19 20 20 22 25 26 29 31 31 32 34 32 34 34 36 33 33 35 34 28 21 23 22 28 31 35 33 38 37 33 30 31 31 28 26 25 23 23 22 20 19 18
18 20 23 25 24 25 28 29 31 33 35 34 37 36 33 36 36 35 33 34 37 34 26 25 24 27 26 25 33 36 36 33 31 31 31 29 28 27 25 24 23 21 20
20 21 22 24 25 27 30 32 32 33 33 35 36 40 40 39 34 32 33 32 30 32 35 31 27 27 29 29 27 30 36 37 33 32 32 30 30 29 27 27 26 24 23
20 21 22 24 25 27 29 31 34 36 38 35 36 39 43 41 41 39 38 38 35 36 35 34 35 28 27 31 33 30 31 34 34 34 34 32 31 32 30 29 29 27 25
19 20 23 25 26 26 29 31 31 34 38 41 39 37 39 42 45 48 39 40 40 41 40 39 38 34 34 32 30 33 36 36 39 40 42 39 36 34 33 32 30 30 28
20 22 24 27 28 28 30 33 35 38 38 40 40 40 40 42 43 46 51 44 41 38 40 41 40 37 36 36 36 35 37 42 41 40 40 43 42 35 37 35 33 32 31
22 23 25 26 28 31 33 35 37 39 41 41 42 42 44 44 44 45 50 49 48 44 43 43 41 41 41 39 37 37 38 40 44 42 46 43 42 39 39 38 36 35 34
23 24 26 29 31 33 35 37 39 40 41 42 42 43 43 45 45 46 49 52 54 51 49 45 45 46 44 43 43 43 46 46 44 45 45 46 47 43 42 41 41 39 38
23 26 29 29 30 34 35 36 38 39 39 39 41 41 42 42 41 42 46 49 54 55 51 49 41 42 43 43 45 44 43 45 44 47 48 48 50 44 46 45 44 42 40
24 27 31 32 36 34 35 37 39 39 38 39 39 41 43 43 43 43 45 48 53 60 59 49 49 42 43 40 42 42 44 46 48 45 47 50 52 50 49 48 47 45 43
30 29 34 34 35 37 38 39 39 38 38 38 39 41 41 42 43 43 45 46 46 51 61 52 52 46 44 46 43 41 43 45 47 50 50 48 51 54 58 55 50 49 47
31 32 34 35 37 39 39 40 39 38 39 40 40 42 44 43 45 46 46 47 48 48 56 59 52 50 47 45 46 44 44 44 44 45 45 46 46 52 52 61 56 53 51
28 31 34 36 39 40 40 40 41 41 41 42 42 43 45 45 47 47 46 47 48 47 49 59 52 49 50 47 48 50 48 45 45 45 46 48 50 47 49 48 54 55 53
30 32 35 38 40 40 41 41 42 42 43 43 44 45 45 45 46 45 45 46 45 46 45 48 56 50 49 45 46 47 50 49 45 44 47 49 49 49 46 50 49 53 56
30 35 37 39 40 41 41 41 42 43 42 42 41 42 43 43 44 45 45 46 45 45 45 45 48 50 47 46 46 49 52 51 53 47 48 48 50 50 53 48 52 56 56
34 35 37 39 40 40 40 40 40 41 41 42 41 42 44 46 48 46 44 46 45 46 44 41 43 44 44 45 46 46 49 50 50 47 49 49 49 49 51 53 51 51 54
34 37 37 40 40 39 39 41 40 40 39 40 44 45 27 37 41 41 40 43 53 54 56 44 48 49 45 41 41 44 46 48 53 43 46 49 46 50 48 49 51 46 49
35 37 39 39 39 39 39 40 41 41 45 46 40 34 30 21 26 22 20 25 24 24 25 33 35 30 52 40 40 39 40 43 47 43 41 46 41 47 44 44 44 47 45
37 38 38 38 39 38 41 43 47 43 35 23 17 17 18 20 22 24 30 35 36 35 31 27 28 36 37 42 39 38 32 38 38 37 38 44 38 41 39 39 37 38 42
36 36 37 38 38 36 35 30 37 28 19 18 18 19 20 21 22 23 26 30 34 34 34 35 32 30 29 31 37 38 26 37 38 37 33 36 35 36 36 37 33 33 32
36 37 38 33 34 21 32 34 25 18 45 38 41 35 33 29 23 21 19 22 28 28 29 34 37 39 36 34 35 36 33 23 36 38 32 31 31 32 37 31 30 30 27
Wind_Direction
349 352 351 352 347 347 345 342 340 342 343 352 3 295 286 285 278 281 276 273 275 275 274 273 273 268 263 260 261 261 262 263 262 262 263 264 263 263 262 259 260 261 262
338 340 339 338 340 338 335 335 335 335 333 333 336 336 311 287 278 279 281 279 275 275 273 271 271 270 268 260 257 259 258 258 258 257 260 260 260 260 258 256 256 256 256
338 335 335 334 337 338 338 336 334 332 327 325 322 321 320 312 306 297 288 283 274 277 274 271 269 268 270 272 259 255 255 254 255 253 254 253 255 255 254 251 251 250 250
337 336 335 334 333 333 333 332 330 327 325 321 317 314 309 304 305 305 300 287 282 277 276 273 270 269 270 268 269 262 253 250 250 250 249 249 250 251 249 246 246 248 246
334 332 332 332 331 330 328 328 326 325 323 320 315 310 305 302 299 293 297 296 292 283 283 279 277 274 271 269 266 265 260 250 249 246 247 247 247 246 246 244 242 238 235
333 332 331 330 330 326 325 325 323 323 320 316 313 309 305 299 296 293 289 286 289 286 285 287 285 280 275 270 267 264 260 255 247 248 245 246 246 244 246 243 241 236 233
326 326 325 327 327 326 326 324 321 319 317 316 310 307 306 302 297 292 292 288 281 282 281 283 284 282 286 273 271 266 260 254 254 245 245 244 244 244 245 242 241 237 234
317 321 322 322 323 323 322 322 320 318 317 315 311 307 302 300 300 299 296 294 293 288 281 281 279 283 279 282 279 269 265 259 252 249 244 241 244 244 242 241 240 237 236
310 314 317 318 319 320 321 321 318 315 313 313 311 306 300 295 296 294 292 290 288 288 286 287 285 279 278 280 279 279 269 263 255 251 247 237 240 243 241 239 240 238 236
307 312 317 319 319 320 320 320 319 316 313 309 308 305 300 297 293 290 291 288 286 284 283 281 284 284 282 279 278 277 272 270 261 257 254 248 242 239 240 240 239 239 235
314 318 319 319 317 318 319 319 316 314 312 309 305 303 300 296 293 290 286 288 287 285 283 281 278 280 282 284 279 277 274 268 268 263 257 251 248 236 239 239 239 237 236
313 319 321 320 318 317 317 316 315 313 310 307 303 300 296 293 291 289 286 285 284 283 281 280 280 280 279 280 282 280 277 273 266 269 262 253 244 242 238 241 239 237 236
310 313 319 318 313 316 316 315 313 312 310 306 302 298 295 291 289 287 286 284 282 281 280 279 279 278 279 278 278 279 276 273 271 266 265 260 251 242 242 241 241 239 237
310 313 312 312 312 315 314 314 312 311 310 307 302 299 296 293 292 289 285 285 283 280 279 278 280 279 278 277 277 276 274 272 271 268 264 262 259 246 241 239 240 240 238
315 318 314 313 311 313 314 313 312 310 308 306 303 300 295 294 292 290 288 284 282 279 276 280 278 280 279 281 279 277 274 273 271 270 267 263 260 257 246 240 239 239 238
315 314 313 312 313 314 314 313 312 310 308 306 304 301 298 296 294 292 288 287 285 282 277 278 277 280 279 279 280 279 277 275 272 269 268 268 264 258 251 244 240 238 237
316 315 314 314 315 315 315 313 311 310 307 305 303 301 298 297 294 293 291 289 286 284 281 278 279 278 280 278 276 277 276 275 274 270 269 266 269 263 257 250 241 237 236
317 317 317 317 316 315 315 313 311 308 306 304 303 301 299 297 294 293 291 288 286 284 282 278 279 278 275 276 275 275 275 273 272 271 271 268 267 268 259 257 247 237 234
321 320 319 318 318 317 316 313 311 308 306 304 302 300 298 297 294 293 291 288 287 285 283 281 277 278 276 276 275 274 273 272 272 272 272 269 267 262 263 257 259 242 234
323 321 321 320 319 318 316 314 312 309 307 306 304 303 301 299 296 294 291 288 287 285 284 282 280 277 276 275 274 273 271 271 267 269 271 270 267 263 258 258 258 255 239
324 324 323 322 321 320 318 317 316 313 311 307 305 303 300 297 293 291 290 286 283 281 281 282 279 280 277 274 272 273 272 271 267 265 267 268 265 262 258 254 255 258 248
327 326 325 324 323 322 322 320 319 317 314 310 305 301 292 255 254 250 246 245 259 261 258 276 272 269 273 277 276 273 272 270 266 266 264 266 264 259 260 255 251 257 253
329 328 327 327 326 325 325 324 320 317 307 277 265 259 255 297 296 290 271 246 255 250 257 276 271 253 266 274 277 279 276 272 269 264 263 265 266 257 260 258 254 253 254
331 331 330 330 329 329 326 323 312 281 269 266 288 288 284 292 297 293 293 289 285 283 279 273 270 274 270 270 270 277 285 280 275 268 262 261 265 259 260 258 257 254 253
334 334 334 333 331 332 332 278 278 269 275 282 296 300 299 296 297 294 292 289 286 283 282 279 276 274 273 273 267 265 262 277 272 264 263 261 263 259 259 257 260 253 254
336 336 334 337 337 292 281 280 274 313 301 317 315 316 314 309 299 284 283 290 292 289 286 280 277 275 275 273 271 263 262 249 270 267 259 261 263 258 253 260 257 251 250